Zurück zum Katalog

STARLINK-36147

AktivKommunikationVLEO
NORAD 66987·PAYLOAD·🇺🇸 United States

Gestartet Dec 8, 2025 von Cape Canaveral Space Force Station

Loading…

Nächste Überflüge (nächste 24 Stunden)

TLE

AktuellSource: CelesTrak SupGP

Epoche: Sep 15, 2026, 03:16 UTC

1 66987C 25288AE  26258.13659722 -.00011635  00000+0 -42141-3 0  2589
2 66987  43.0034  33.4910 0001498 265.3350  18.6707 15.27585879    15

Verfolge STARLINK-36147 in Echtzeit mit AllMySat

Download on the App Store